Weather Roundup
Issued by NWS Chicago, IL

Home | Current Version | Previous Version | Text Only | Print | Product List | Glossary Off
Versions: 1 2 3 4 5 6 7 8 9 10 11 12 13 14 15 16 17 18 19 20 21 22 23 24 25 26 27 28 29 30 31 32 33 34 35 36 37 38 39 40 41 42 43 44 45 46 47 48 49 50

000
NZUS59 KLOT 250600
HRRLOT

CHICAGO AREA WEATHER ROUNDUP
NATIONAL WEATHER SERVICE CHICAGO/ROMEOVILLE IL
100 AM CDT FRI JUL 25 2014

NOTE: "FAIR" INDICATES FEW OR NO CLOUDS BELOW 12,000 FEET WITH NO
SIGNIFICANT WEATHER AND/OR OBSTRUCTIONS TO VISIBILITY.

* THESE STATIONS ARE NOT UNDER NWS QUALITY CONTROL. THEY ALSO MAY NOT
  REPORT WEATHER SUCH AS PRECIPITATION OR FOG.

ILZ005-006-012>014-019>023-250700-
NORTHEAST ILLINOIS

CITY           SKY/WX    TMP DP  RH WIND       PRES   REMARKS
OHARE          PTCLDY    59  47  64 SE6       30.04F
6HR MIN TEMP:  59; 6HR MAX TEMP:  71;

MIDWAY         CLEAR     65  51  60 S7        30.05F
6HR MIN TEMP:  64; 6HR MAX TEMP:  72;

AURORA         CLEAR     56  48  74 CALM      30.06R
6HR MIN TEMP:  55; 6HR MAX TEMP:  74;

WAUKEGAN       CLEAR     54  50  86 CALM      30.04F
6HR MIN TEMP:  54; 6HR MAX TEMP:  66;

DUPAGE AIRPORT CLEAR     57  49  74 S5        30.05S
6HR MIN TEMP:  56; 6HR MAX TEMP:  71;

WHEELING       CLEAR     59  48  67 CALM      30.06F
6HR MIN TEMP:  59; 6HR MAX TEMP:  70;

NORTHERLY IS   NOT AVBL
$$

WIZ051-052-058>065-066-070>072-250700-
SOUTHEAST WISCONSIN

CITY           SKY/WX    TMP DP  RH WIND       PRES   REMARKS
MILWAUKEE      PTCLDY    61  44  53 CALM      30.05S
6HR MIN TEMP:  60; 6HR MAX TEMP:  66;

KENOSHA*       CLEAR     58  51  78 S3        30.05S
RACINE*        CLEAR     58  52  80 SW6       30.07R
$$

INZ001>003-010>013-019-020-250700-
NORTHWEST INDIANA

CITY           SKY/WX    TMP DP  RH WIND       PRES   REMARKS
GARY*          CLEAR     54  52  94 CALM      30.06F
6HR MIN TEMP:  54; 6HR MAX TEMP:  68;

MICHIGAN CITY* NOT AVBL
RENSSELAER*    NOT AVBL
VALPARAISO     PTCLDY    50  49  96 CALM      30.07S
$$

LMZ740>746-250700-
SOUTHERN LAKE MICHIGAN

STATION/POSITION TIME  SKY/WX   TEMP WIND        PRES    VSBY
                                AIR  DIR/SP/G
                 (UTC)          (F)  (DEG/KT/KT) (MB)    (MI)
HARRISON CRIB    0500            65  170/  9/ 11   N/A
BURNHAM HARBOR   NOT AVBL
CALUMET HARBOR   0500            62  170/  3/  4 1016.5F
BURNS HARBOR     NOT AVBL
MICHIGAN CITY    0500            59  140/  4/  6   N/A
$$

ABBREVIATIONS USED IN REMARKS
   TC - TEMPERATURE IN CELSIUS
  WCI - WIND CHILL INDEX
   HX - HEAT INDEX
  VSB - VISIBILITY
$$



USA.gov is the U.S. government's official web portal to all federal, state and local government web resources and services.